Hurricane Symbol View the latest observations near East Pacific Tropical Storm Bud.

Station DPXC1 - 9415141 - Davis Point, San Pablo Bay, CA Image indicating link to RSS feed of recent meteorological observations for station DPXC1


Conditions at DPXC1 as of
(6:18 pm PDT on 07/24/2024)
0118 GMT on 07/25/2024:
     

Click on the graph icon in the table below to see a time series plot of the last five days of that observation.

5-day plot - Wind Direction Wind Direction (WDIR): SW ( 220 deg true )
5-day plot - Wind Speed Wind Speed (WSPD): 13.0 kts
5-day plot - Wind Gust Wind Gust (GST): 18.1 kts
5-day plot - Atmospheric Pressure Atmospheric Pressure (PRES):29.96 in
5-day plot - Air Temperature Air Temperature (ATMP): 76.1 °F
5-day plot - Wind Speed at 10 Meters Wind Speed at 10 meters (WSPD10M): 13.6 kts
5-day plot - Wind Speed at 20 Meters Wind Speed at 20 meters (WSPD20M): 13.6 kts
5-day plot -  Wind Speed, Wind Gust and Atmospheric Pressure Combined plot of Wind Speed, Gust, and Air Pressure
NOS Water Level Observation Network Water Level
Previous observations
TIME
(PDT)
5-day plot - Wind Direction
WDIR
 
5-day plot - Wind Speed
WSPD
kts
5-day plot - Wind Gust
GST
kts
5-day plot - Wave Height
WVHT
ft
5-day plot - Dominant Wave Period
DPD
sec
5-day plot - Average Wave Period
APD
sec
5-day plot - Mean Wave Direction
MWD
 
5-day plot - Atmospheric Pressure
PRES
in
5-day plot - Pressure Tendency
PTDY
in
5-day plot - Air Temperature
ATMP
°F
5-day plot - Water Temperature
WTMP
°F
5-day plot - Dew Point
DEWP
°F
5-day plot - Salinity
SAL
psu
5-day plot - Visibility
VIS
nmi
5-day plot - Tide (above MLLW)
TIDE
ft
2024-07-24 06:12 pm SW 15.9 18.1----29.96- 76.1-----
2024-07-24 06:06 pm SW 15.0 19.0----29.96- 75.9-----
2024-07-24 06:00 pmSSW 15.0 19.0----29.96-0.04 76.8-----
2024-07-24 05:54 pm SW 15.0 21.0----29.96- 75.9-----
2024-07-24 05:48 pm SW 17.1 19.0----29.96- 76.3-----
2024-07-24 05:42 pmSSW 15.9 18.1----29.96- 77.2-----
2024-07-24 05:36 pmSSW 15.9 19.0----29.96- 77.4-----
2024-07-24 05:30 pm SW 15.0 19.0----29.96- 77.4-----
2024-07-24 05:24 pmSSW 15.9 19.0----29.96- 78.1-----
2024-07-24 05:18 pm SW 15.0 18.1----29.97- 78.4-----
2024-07-24 05:12 pm SW 13.0 18.1----29.97- 78.8-----
2024-07-24 05:06 pm SW 15.0 19.0----29.97- 79.2-----
2024-07-24 05:00 pm SW 14.0 18.1----29.98-0.04 78.8-----
2024-07-24 04:54 pm SW 15.0 19.0----29.98- 79.7-----
2024-07-24 04:48 pm SW 14.0 17.1----29.98- 79.5-----
2024-07-24 04:42 pm SW 15.0 17.1----29.98- 79.2-----
2024-07-24 04:36 pm SW 13.0 17.1----29.98- 78.8-----
2024-07-24 04:30 pm SW 14.0 15.9----29.98- 78.3-----
2024-07-24 04:24 pmSSW 15.0 17.1----29.98- 78.4-----
2024-07-24 04:18 pm SW 15.0 19.0----29.98- 78.1-----
2024-07-24 04:12 pm SW 15.9 19.0----29.98- 78.6-----
2024-07-24 04:06 pm SW 17.1 19.0----29.98- 78.3-----
2024-07-24 04:00 pm SW 15.9 19.0----29.98-0.04 79.2-----
2024-07-24 03:54 pm SW 14.0 18.1----29.99- 79.3-----
2024-07-24 03:48 pm SW 15.0 19.0----29.99-------
2024-07-24 03:42 pm SW 14.0 17.1----29.99-------
2024-07-24 03:36 pm SW 13.0 15.9----30.00-------
2024-07-24 03:30 pm SW 12.0 15.0----30.00- 79.7-----
2024-07-24 03:24 pm SW 13.0 15.9----30.00- 79.0-----
2024-07-24 03:18 pm SW 13.0 15.9----30.00- 79.2-----
2024-07-24 03:12 pm SW 13.0 17.1----30.00- 79.5-----
2024-07-24 03:06 pm SW 14.0 15.9----30.00- 79.5-----
2024-07-24 03:00 pm SW 14.0 15.9----30.00-0.03 79.7-----
2024-07-24 02:54 pm SW 13.0 15.9----30.01- 79.0-----
2024-07-24 02:48 pm SW 13.0 15.9----30.01- 79.2-----
2024-07-24 02:42 pm SW 13.0 15.9----30.01- 79.3-----
2024-07-24 02:36 pm SW 13.0 15.9----30.01- 79.2-----
2024-07-24 02:30 pm SW 12.0 15.0----30.01- 78.6-----
2024-07-24 02:24 pm SW 9.9 11.1----30.01- 78.4-----
2024-07-24 02:18 pmWSW 9.9 12.0----30.02- 78.8-----
2024-07-24 02:12 pm SW 9.9 12.0----30.02- 78.4-----
2024-07-24 02:06 pm SW 11.1 15.0----30.02- 78.1-----
2024-07-24 02:00 pmWSW 11.1 14.0----30.02-0.01 77.7-----
2024-07-24 01:54 pmWSW 12.0 15.9----30.02- 77.5-----
2024-07-24 01:48 pm SW 12.0 15.0----30.02-------
2024-07-24 01:42 pm SW 11.1 14.0----30.02-------
2024-07-24 01:36 pm SW 8.9 14.0----30.03-------
2024-07-24 01:30 pm SW 11.1 13.0----30.02- 76.8-----
2024-07-24 01:24 pm SW 11.1 13.0----30.02- 76.8-----
2024-07-24 01:18 pm SW 11.1 13.0----30.02- 76.5-----
2024-07-24 01:12 pm SW 11.1 13.0----30.03- 75.9-----
2024-07-24 01:06 pmWSW 9.9 13.0----30.03- 75.9-----
2024-07-24 01:00 pm SW 9.9 13.0----30.03+0.00 75.9-----
2024-07-24 12:54 pmWSW 8.9 12.0----30.03- 76.1-----
2024-07-24 12:48 pmWSW 8.0 11.1----30.03- 75.7-----
2024-07-24 12:42 pm W 7.0 8.9----30.03- 76.5-----
2024-07-24 12:36 pm W 8.0 9.9----30.03- 76.5-----
2024-07-24 12:30 pm W 7.0 8.9----30.03- 75.9-----
2024-07-24 12:24 pmWNW 6.0 8.0----30.03- 76.3-----
2024-07-24 12:18 pm W 6.0 8.9----30.03- 75.6-----
2024-07-24 12:12 pm W 7.0 9.9----30.03- 74.3-----
2024-07-24 12:06 pm W 7.0 8.9----30.03- 73.9-----
2024-07-24 12:00 pm W 7.0 9.9----30.03+0.02 73.9-----
2024-07-24 11:54 am W 8.9 11.1----30.03- 73.9-----
2024-07-24 11:48 am W 8.0 11.1----30.03- 73.6-----
2024-07-24 11:42 am W 7.0 11.1----30.03- 74.5-----
2024-07-24 11:36 am W 7.0 11.1----30.03- 73.9-----
2024-07-24 11:30 am W 9.9 12.0----30.03- 73.8-----
2024-07-24 11:24 amWNW 6.0 9.9----30.03- 74.3-----
2024-07-24 11:18 amWNW 6.0 8.0----30.03- 74.3-----
2024-07-24 11:12 amWNW 7.0 8.9----30.03- 73.9-----
2024-07-24 11:06 amWNW 5.1 7.0----30.03- 73.9-----
2024-07-24 11:00 amWNW 6.0 8.0----30.03+0.02 73.4-----
2024-07-24 10:54 amWNW 5.1 7.0----30.03- 73.2-----
2024-07-24 10:48 amWNW 4.1 7.0----30.03- 72.5-----
2024-07-24 10:42 am W 5.1 6.0----30.03- 72.1-----
2024-07-24 10:36 am W 5.1 8.0----30.03- 72.5-----
2024-07-24 10:30 am W 5.1 7.0----30.03- 72.0-----
2024-07-24 10:24 am W 7.0 8.0----30.02- 71.1-----
2024-07-24 10:18 am W 6.0 8.9----30.02- 70.3-----
2024-07-24 10:12 am W 6.0 8.9----30.02- 70.2-----
2024-07-24 10:06 am W 6.0 8.0----30.02- 70.0-----
2024-07-24 10:00 am W 5.1 8.0----30.02+0.03 68.9-----
2024-07-24 09:54 am W 7.0 8.0----30.02- 68.5-----
2024-07-24 09:48 am W 6.0 8.9----30.02-------
2024-07-24 09:42 am W 7.0 9.9----30.02-------
2024-07-24 09:36 amWSW 7.0 11.1----30.02-------
2024-07-24 09:30 am W 6.0 9.9----30.02- 67.8-----
2024-07-24 09:24 amWSW 6.0 8.9----30.02- 68.4-----
2024-07-24 09:18 am W 6.0 9.9----30.02- 67.6-----
2024-07-24 09:12 amWSW 7.0 8.9----30.02- 67.3-----
2024-07-24 09:06 amWSW 7.0 9.9----30.02- 67.1-----
2024-07-24 09:00 amWSW 7.0 9.9----30.01+0.04 67.1-----
2024-07-24 08:54 amWSW 6.0 8.9----30.02- 67.1-----
2024-07-24 08:48 amWSW 7.0 9.9----30.02-------
2024-07-24 08:42 amWSW 7.0 8.9----30.02-------
2024-07-24 08:36 amWSW 8.9 11.1----30.01-------
2024-07-24 08:30 amWSW 9.9 12.0----30.01- 66.0-----
2024-07-24 08:24 amWSW 8.9 11.1----30.01- 65.8-----
2024-07-24 08:18 amWSW 8.0 9.9----30.01- 65.7-----
2024-07-24 08:12 am SW 8.0 11.1----30.01- 65.8-----
2024-07-24 08:06 am SW 9.9 11.1----30.01- 65.5-----
2024-07-24 08:00 amWSW 7.0 8.9----30.01+0.05 65.5-----
2024-07-24 07:54 amWSW 8.0 9.9----30.01- 65.5-----
2024-07-24 07:48 amWSW 8.9 11.1----30.01- 65.5-----
2024-07-24 07:42 am SW 8.0 11.1----30.00- 65.7-----
2024-07-24 07:36 am SW 8.9 12.0----30.00- 65.3-----
2024-07-24 07:30 am SW 8.9 12.0----30.00- 65.3-----
2024-07-24 07:24 am SW 8.9 12.0----30.00- 64.9-----
2024-07-24 07:18 am SW 8.0 11.1----29.99- 65.1-----
2024-07-24 07:12 am SW 8.9 11.1----29.99- 64.9-----
2024-07-24 07:06 amWSW 9.9 11.1----29.99- 64.6-----
2024-07-24 07:00 amWSW 7.0 8.9----29.99+0.05 64.8-----
2024-07-24 06:54 amWSW 6.0 8.9----29.99- 64.6-----
2024-07-24 06:48 amWSW 6.0 9.9----29.98-------
2024-07-24 06:42 amWSW 8.0 11.1----29.98-------
2024-07-24 06:36 amWSW 8.0 11.1----29.98-------
2024-07-24 06:30 amWSW 7.0 11.1----29.98- 64.8-----
2024-07-24 06:24 amWSW 8.0 12.0----29.98- 64.6-----
2024-07-24 06:18 amWSW 8.9 12.0----29.98- 64.9-----
2024-07-24 06:12 amWSW 11.1 13.0----29.98- 65.1-----
2024-07-24 06:06 am SW 9.9 12.0----29.98- 65.3-----
2024-07-24 06:00 am SW 9.9 12.0----29.97+0.05 64.9-----
2024-07-24 05:54 am SW 9.9 13.0----29.97- 65.1-----
2024-07-24 05:48 am SW 9.9 12.0----29.97- 64.8-----
2024-07-24 05:42 amWSW 9.9 12.0----29.97- 64.4-----
2024-07-24 05:36 amWSW 8.9 12.0----29.97- 64.6-----
2024-07-24 05:30 amWSW 8.9 12.0----29.96- 64.4-----
2024-07-24 05:24 amWSW 8.9 13.0----29.96- 64.4-----
2024-07-24 05:18 amWSW 11.1 13.0----29.96- 64.6-----
2024-07-24 05:12 amWSW 11.1 13.0----29.96- 64.9-----
2024-07-24 05:06 am SW 9.9 12.0----29.96- 65.1-----
2024-07-24 05:00 am SW 9.9 13.0----29.96+0.03 65.5-----
2024-07-24 04:54 am SW 9.9 13.0----29.96- 65.3-----
2024-07-24 04:48 am SW 11.1 14.0----29.96- 65.5-----
2024-07-24 04:42 am SW 11.1 13.0----29.95- 65.1-----
2024-07-24 04:36 amWSW 11.1 13.0----29.95- 65.3-----
2024-07-24 04:30 amWSW 9.9 13.0----29.95- 65.1-----
2024-07-24 04:24 amWSW 9.9 13.0----29.95- 65.5-----
2024-07-24 04:18 amWSW 11.1 13.0----29.94- 65.5-----
2024-07-24 04:12 am W 9.9 14.0----29.94- 65.7-----
2024-07-24 04:06 amWSW 9.9 14.0----29.94- 66.0-----
2024-07-24 04:00 amWSW 8.9 12.0----29.94+0.01 66.4-----
2024-07-24 03:54 amWSW 8.9 11.1----29.94- 66.7-----
2024-07-24 03:48 am W 8.0 9.9----29.93- 66.9-----
2024-07-24 03:42 am W 8.0 11.1----29.94- 66.9-----
2024-07-24 03:36 am W 8.9 11.1----29.93- 66.9-----
2024-07-24 03:30 am W 8.9 12.0----29.93- 66.9-----
2024-07-24 03:24 am W 8.9 12.0----29.93- 67.1-----
2024-07-24 03:18 am W 8.9 12.0----29.93- 67.5-----
2024-07-24 03:12 amWSW 8.0 12.0----29.93- 67.6-----
2024-07-24 03:06 amWSW 9.9 12.0----29.93- 67.6-----
2024-07-24 03:00 am W 9.9 12.0----29.93+0.00 68.0-----
2024-07-24 02:54 am W 8.9 12.0----29.93- 68.4-----
2024-07-24 02:48 am W 8.0 12.0----29.93- 68.4-----
2024-07-24 02:42 am W 8.0 12.0----29.92- 68.5-----
2024-07-24 02:36 am W 8.0 9.9----29.93- 69.1-----
2024-07-24 02:30 am W 8.0 8.9----29.93- 69.6-----
2024-07-24 02:24 am W 5.1 8.0----29.93- 70.2-----
2024-07-24 02:18 am W 5.1 7.0----29.93- 70.5-----
2024-07-24 02:12 am W 5.1 8.0----29.93- 70.5-----
2024-07-24 02:06 amWSW 7.0 8.9----29.93- 70.7-----
2024-07-24 02:00 am W 7.0 8.0----29.93+0.01 71.6-----
2024-07-24 01:54 amWSW 6.0 8.9----29.93- 72.3-----
2024-07-24 01:48 amWSW 8.0 8.9----29.93- 72.5-----
2024-07-24 01:42 amWSW 8.0 8.9----29.93- 72.5-----
2024-07-24 01:36 amWSW 8.0 8.9----29.93- 72.9-----
2024-07-24 01:30 am SW 8.0 9.9----29.92- 73.4-----
2024-07-24 01:24 am SW 8.9 9.9----29.93- 72.9-----
2024-07-24 01:18 am SW 9.9 11.1----29.93- 72.3-----
2024-07-24 01:12 amWSW 9.9 11.1----29.93- 72.1-----
2024-07-24 01:06 amWSW 8.0 9.9----29.93- 72.3-----
2024-07-24 01:00 amWSW 8.0 9.9----29.93+0.02 72.0-----
2024-07-24 12:54 amWSW 7.0 8.9----29.93- 72.1-----
2024-07-24 12:48 amWSW 6.0 8.0----29.93- 72.5-----
2024-07-24 12:42 amWSW 7.0 8.9----29.93- 72.0-----
2024-07-24 12:36 amWSW 7.0 8.9----29.93- 72.0-----
2024-07-24 12:30 am W 6.0 7.0----29.93- 72.0-----
2024-07-24 12:24 am W 5.1 7.0----29.93- 72.3-----
2024-07-24 12:18 am W 5.1 7.0----29.93- 72.7-----
2024-07-24 12:12 am W 6.0 7.0----29.93- 72.5-----
2024-07-24 12:06 amWSW 5.1 8.9----29.93- 73.0-----
2024-07-24 12:00 amWSW 6.0 8.0----29.93+0.04 73.4-----
2024-07-23 11:54 pmWSW 6.0 8.0----29.93- 72.9-----
2024-07-23 11:48 pmWSW 5.1 7.0----29.93- 72.9-----
2024-07-23 11:42 pm W 6.0 7.0----29.93- 73.8-----
2024-07-23 11:36 pmWSW 5.1 7.0----29.92- 74.1-----
2024-07-23 11:30 pmWSW 7.0 8.0----29.92- 74.5-----
2024-07-23 11:24 pm SW 7.0 8.0----29.92- 74.8-----
2024-07-23 11:18 pm SW 6.0 8.0----29.92- 74.1-----
2024-07-23 11:12 pmWSW 5.1 7.0----29.92- 73.8-----
2024-07-23 11:06 pmWSW 6.0 7.0----29.92- 73.6-----
2024-07-23 11:00 pm W 5.1 6.0----29.92+0.04 72.7-----
2024-07-23 10:54 pmWSW 6.0 7.0----29.92- 72.1-----
2024-07-23 10:48 pmWSW 6.0 8.0----29.92- 71.6-----
2024-07-23 10:42 pmWSW 6.0 8.9----29.92- 72.0-----
2024-07-23 10:36 pmWSW 8.0 9.9----29.92- 71.8-----
2024-07-23 10:30 pmWSW 8.0 9.9----29.92- 72.0-----
2024-07-23 10:24 pmWSW 8.0 9.9----29.91- 72.0-----
2024-07-23 10:18 pm W 7.0 11.1----29.91- 72.3-----
2024-07-23 10:12 pm W 8.0 9.9----29.91- 72.7-----
2024-07-23 10:06 pmWSW 7.0 8.9----29.91- 73.0-----
2024-07-23 10:00 pm W 6.0 8.0----29.91+0.06 73.4-----
2024-07-23 09:54 pm W 6.0 9.9----29.91- 74.7-----
2024-07-23 09:48 pm W 8.0 9.9----29.90- 74.8-----
2024-07-23 09:42 pmWSW 7.0 8.0----29.90- 74.5-----
2024-07-23 09:36 pmWSW 6.0 8.0----29.90- 74.5-----
2024-07-23 09:30 pm SW 7.0 8.0----29.90- 74.8-----
2024-07-23 09:24 pmWSW 6.0 7.0----29.90- 75.0-----
2024-07-23 09:18 pmWSW 5.1 7.0----29.90- 75.4-----
2024-07-23 09:12 pmWSW 5.1 7.0----29.89- 75.7-----
2024-07-23 09:06 pm SW 7.0 8.0----29.89- 75.6-----
2024-07-23 09:00 pm-------29.89+0.05 75.9-----
2024-07-23 08:54 pm-------29.89- 76.3-----
2024-07-23 08:48 pmWSW 9.9 11.1----29.88- 76.3-----
2024-07-23 08:42 pmWSW 7.0 9.9----29.88- 76.1-----
2024-07-23 08:36 pmWSW 8.0 11.1----29.88- 76.3-----
2024-07-23 08:30 pmWSW 8.9 11.1----29.88- 76.5-----
2024-07-23 08:24 pm SW 8.0 9.9----29.88- 76.5-----
2024-07-23 08:18 pmWSW 8.0 8.9----29.88- 76.5-----
2024-07-23 08:12 pmWSW 8.0 9.9----29.88- 76.8-----
2024-07-23 08:06 pmWSW 8.9 11.1----29.88- 76.3-----
2024-07-23 08:00 pmWSW 7.0 9.9----29.88+0.05 77.5-----
2024-07-23 07:54 pm SW 8.9 9.9----29.87- 78.1-----
2024-07-23 07:48 pm SW 8.0 11.1----29.87- 78.1-----
2024-07-23 07:42 pm SW 9.9 12.0----29.87- 78.3-----
2024-07-23 07:36 pm SW 8.0 11.1----29.87- 78.4-----
2024-07-23 07:30 pm SW 8.0 11.1----29.87- 78.3-----
2024-07-23 07:24 pm SW 8.9 13.0----29.86- 78.3-----
2024-07-23 07:18 pm SW 12.0 15.9----29.86- 77.7-----
2024-07-23 07:12 pm SW 13.0 15.9----29.85- 76.3-----
2024-07-23 07:06 pm SW 13.0 17.1----29.85- 76.5-----
2024-07-23 07:00 pm SW 14.0 18.1----29.85+0.01 76.3-----
2024-07-23 06:54 pmWSW 15.0 18.1----29.85- 76.6-----
2024-07-23 06:48 pm SW 15.0 18.1----29.84- 77.4-----
2024-07-23 06:42 pmWSW 13.0 18.1----29.85- 78.3-----
2024-07-23 06:36 pmWSW 9.9 14.0----29.85- 78.8-----
2024-07-23 06:30 pmWSW 11.1 14.0----29.84- 82.2-----
2024-07-23 06:24 pm W 13.0 17.1----29.84- 82.0-----
2024-07-23 06:18 pm W 9.9 12.0----29.83- 81.3-----
2024-07-23 06:12 pmWSW 8.0 11.1----29.83- 82.6-----
2024-07-23 06:06 pmWSW 8.9 11.1----29.83- 81.9-----
2024-07-23 06:00 pmWSW 11.1 15.0----29.83-0.02 81.9-----
2024-07-23 05:54 pmWSW 14.0 15.9----29.83- 81.5-----